Regional Weather Roundup
Issued by NWS Charleston, SC

Current Version | Previous Version | Text Only | Print | Product List | Glossary Off
Versions: 1 2 3 4 5 6 7 8 9 10 11 12 13 14 15 16 17 18 19 20 21 22 23 24 25 26 27 28 29 30 31 32 33 34 35 36 37 38 39 40 41 42 43 44 45 46 47 48 49 50

000
ASUS42 KCHS 200912
RWRCHS

REGIONAL WEATHER ROUNDUP
NATIONAL WEATHER SERVICE CHARLESTON SC
400 AM EST MON FEB 20 2017

NOTE: "FAIR" INDICATES FEW OR NO CLOUDS BELOW 12,000 FEET WITH NO
SIGNIFICANT WEATHER AND/OR OBSTRUCTIONS TO VISIBILITY.

NOT ALL STATIONS ARE QUALITY CONTROLLED. USE DATA WITH CAUTION...
ESPECIALLY DEWPOINT OBSERVATIONS.

SCZ027-030-031-034>040-042>050-201000-
...SOUTHEAST SOUTH CAROLINA...

CITY           SKY/WX    TMP DP  RH WIND       PRES   REMARKS
N CHARLESTON   CLEAR     47  45  93 N6        30.11S
WATERFRONT PRK   N/A     59  51  75 VRB2      30.10F
MOUNT PLEASANT LGT RAIN  48  46  93 CALM      30.12R
JOHNS ISLAND   FAIR      48  46  93 CALM      30.11S
PINOPOLIS        N/A     57  54  88 CALM      30.04S
MONCKS CORNER  FAIR      45  43  93 CALM      30.12S
SUMMERVILLE    FAIR      46  45  93 CALM      30.13S
BEAUFORT MCAS  CLEAR     51  49  92 CALM      30.11F
BEAUFORT ARPT  FAIR      52  50  93 CALM      30.11F
HILTON HEAD IS CLEAR     48  48 100 CALM      30.12F
WALTERBORO     SUNNY     45  43  93 CALM      30.13F
ALLENDALE      FAIR      46  46 100 CALM      30.11F

...SOUTHERN MIDLANDS AND PEE DEE...

CITY           SKY/WX    TMP DP  RH WIND       PRES   REMARKS
GEORGETOWN     FAIR      45  45 100 CALM      30.12S
KINGSTREE      FAIR      43  41  93 CALM      30.13S
ORANGEBURG     CLEAR     47  46  97 CALM      30.13S
BARNWELL       FAIR      45  45 100 CALM      30.12F
AIKEN          FAIR      43  41  93 CALM      30.16F
MANNING        FAIR      46  43  87 MISG      30.13S
COLUMBIA       CLEAR     44  40  85 W5        30.14R
SUMTER         CLEAR     50  43  76 N6        30.11S
FLORENCE       CLEAR     50  44  80 N7        30.13S
MYRTLE BEACH   CLEAR     53  46  77 N6        30.12R
N MYRTLE BEACH CLEAR     51  47  86 N6        30.11R

$$

GAZ063-065-086>088-099>101-113>116-118-119-134>141-150-201000-
...SOUTHEAST GEORGIA...

CITY           SKY/WX    TMP DP  RH WIND       PRES   REMARKS
SAVANNAH ARPT  CLEAR     49  46  90 CALM      30.11F
HUNTER AAF     CLEAR     51  51 100 CALM      30.08F
FORT STEWART   CLEAR     49  47  92 CALM      30.08F
STATESBORO     CLEAR     47  47 100 CALM      30.11F
SYLVANIA       SUNNY    N/A N/A N/A CALM      30.12F
CLAXTON        FAIR     N/A N/A N/A CALM      30.11F

...CSRA...CENTRAL AND FAR SOUTHEAST GEORGIA...

CITY           SKY/WX    TMP DP  RH WIND       PRES   REMARKS
THOMSON        CLEAR     45  45 100 CALM      30.17F
AUGUSTA-BUSH   PTCLDY    45  43  93 CALM      30.12F FOG
AUGUSTA-DANIEL CLEAR     54  47  77 N7        30.13F
SWAINSBORO     FAIR      46  46 100 CALM      30.12S
VIDALIA        CLEAR     54  54 100 CALM      30.11S
EASTMAN        FAIR      46  46  99 CALM      30.15R
HAZLEHURST     FAIR      56  54  91 N3        30.10S
ALMA           CLEAR     49  49 100 CALM      30.10S FOG
WAYCROSS       CLEAR     52  52 100 CALM      30.11S
JESUP          FAIR      48  45  87 CALM      30.11S
BAXLEY         FAIR      50  50 100 CALM      30.10F
BRUNSWICK      FOG       52  52 100 CALM      30.11F VSB 1/4
SAINT SIMONS   CLEAR     54  53  97 CALM      30.10F

$$

SCZ027-028-034-036>038-045-046-048>050-GAZ119-141-201000-
...LAKE AND SUPPLEMENTAL COASTAL OBSERVATIONS...

STATION/POSITION TIME  TEMP    WIND        PRES    WAVE   SWELL
                       AIR SEA DIR/SP/G            HT/PER HT/PER/DIR
                 (UTC) (F)     (DEG/KT/KT) (MB)    (FT/S) (FT/S/D)
WINYAH BAY       0745   54     310/  6     1019.0
LAKE MURRAY      0820   52        CALM     1020.0
ACE BASIN NERRS  0745   49        CALM     1019.0
FORT PULASKI     0848   57 60  360/  2/  3 1019.7F
SAPELO ISLAND    0800   55        CALM     1020.0

$$

ANZ835-935-AMZ111-154-330-350-352-354-370-450-454-472-201000-
...C-MAN AND BUOY OBSERVATIONS...

STATION/POSITION TIME  TEMP    WIND        PRES    WAVE   SWELL
                       AIR SEA DIR/SP/G            HT/PER HT/PER/DIR
                 (UTC) (F)     (DEG/KT/KT) (MB)    (FT/S) (FT/S/D)
BUOY 41004       0850   65 69  330/  8/ 10 1018.7R   1/ 6
BUOY 41008       0750   62 61  320/  4/  4 1019.3    1
FOLLY BEACH CMAN 0800   57     300/  4/  5 1019.8F
CAPERS NEARSHORE 0808   59 60  320/  6/  8 1019.1S
FRIPP NEARSHORE  NOT AVBL


STATION/POSITION TIME  TEMP    WIND        PRES    WAVE   SWELL
                       AIR SEA DIR/SP/G            HT/PER HT/PER/DIR
                 (UTC) (F)     (DEG/KT/KT) (MB)    (FT/S) (FT/S/D)
5E ST. MARYS GA  0830      64                N/A     1
FRYING PAN BUOY  0850   62 65  320/ 10/ 12 1018.5R   1/ 6   2/160/ 6
BUOY 41025       0850   63 66  340/  8/ 10 1017.2S   1/ 7   2/160/ 7
CAPE LOOKOUT NC  0800   56     320/  5/  6 1017.2S
BUOY 41002       0850   70 72   10/ 19/ 21 1015.3R   6/ 7
BUOY 41010       NOT AVBL
ST AUGUSTINE FL  0900   60 66  300/  2/  3 1019.7F


$$




USA.gov is the U.S. government's official web portal to all federal, state and local government web resources and services.